Hurricane Symbol View the latest observations near Atlantic Potential Tropical Cyclone One.

Station PCNT2 - 8773701 - Port O'Connor, Matagorda Bay, TX Image indicating link to RSS feed of recent meteorological observations for station PCNT2


Conditions at PCNT2 as of
(9:00 am CDT)
1400 GMT on 06/18/2024:
     

Click on the graph icon in the table below to see a time series plot of the last five days of that observation.

5-day plot - Wind Direction Wind Direction (WDIR): NE ( 50 deg true )
5-day plot - Wind Speed Wind Speed (WSPD): 13.0 kts
5-day plot - Wind Gust Wind Gust (GST): 15.0 kts
5-day plot - Atmospheric Pressure Atmospheric Pressure (PRES):29.78 in
5-day plot - Pressure Tendency Pressure Tendency (PTDY):+0.04 in ( Rising )
5-day plot - Air Temperature Air Temperature (ATMP): 81.7 °F
5-day plot - Water Temperature Water Temperature (WTMP): 86.4 °F
5-day plot - Wind Speed at 10 Meters Wind Speed at 10 meters (WSPD10M): 13.6 kts
5-day plot - Wind Speed at 20 Meters Wind Speed at 20 meters (WSPD20M): 15.5 kts
5-day plot -  Wind Speed, Wind Gust and Atmospheric Pressure Combined plot of Wind Speed, Gust, and Air Pressure
Previous observations
TIME
(CDT)
5-day plot - Wind Direction
WDIR
 
5-day plot - Wind Speed
WSPD
kts
5-day plot - Wind Gust
GST
kts
5-day plot - Wave Height
WVHT
ft
5-day plot - Dominant Wave Period
DPD
sec
5-day plot - Average Wave Period
APD
sec
5-day plot - Mean Wave Direction
MWD
 
5-day plot - Atmospheric Pressure
PRES
in
5-day plot - Pressure Tendency
PTDY
in
5-day plot - Air Temperature
ATMP
°F
5-day plot - Water Temperature
WTMP
°F
5-day plot - Dew Point
DEWP
°F
5-day plot - Salinity
SAL
psu
5-day plot - Visibility
VIS
nmi
5-day plot - Tide (above MLLW)
TIDE
ft
2024-06-18 08:54 amENE 11.1 13.0----29.78- 82.0 86.4----
2024-06-18 08:48 amENE 12.0 12.0----29.78- 81.9 86.4----
2024-06-18 08:42 amENE 11.1 13.0----29.78- 81.9 86.5----
2024-06-18 08:36 am E 11.1 13.0----29.77- 82.0 86.5----
2024-06-18 08:30 amENE 9.9 12.0----29.77- 82.0 86.5----
2024-06-18 08:24 amENE 8.9 11.1----29.77- 81.1 86.5----
2024-06-18 08:18 amENE 11.1 13.0----29.77- 81.0 86.5----
2024-06-18 08:12 amENE 12.0 14.0----29.77- 80.8 86.5----
2024-06-18 08:06 am E 15.0 18.1----29.77- 80.2 86.5----
2024-06-18 08:00 amENE 13.0 17.1----29.77+0.02 81.0 86.5----
2024-06-18 07:54 am E 13.0 15.0----29.77- 80.6 86.5----
2024-06-18 07:48 am E 17.1 20.0----29.77- 80.4 86.5----
2024-06-18 07:42 am E 17.1 20.0----29.76- 80.4 86.5----
2024-06-18 07:36 am E 18.1 22.0----29.76- 79.9 86.5----
2024-06-18 07:30 am E 19.0 22.0----29.76- 79.0 86.5----
2024-06-18 07:24 am E 18.1 22.9----29.76- 78.8 86.5----
2024-06-18 07:18 amESE 20.0 24.1----29.76- 78.8 86.5----
2024-06-18 07:12 amESE 17.1 25.1----29.76- 78.1 86.5----
2024-06-18 07:06 am E 19.0 25.1----29.75- 78.8 86.5----
2024-06-18 07:00 am E 19.0 25.1----29.75+0.00 80.1 86.5----
2024-06-18 06:54 amENE 17.1 20.0----29.75- 83.5 86.5----
2024-06-18 06:48 amENE 17.1 19.0----29.75- 83.5 86.5----
2024-06-18 06:42 amENE 13.0 19.0----29.75- 83.3 86.5----
2024-06-18 06:36 amENE 15.9 19.0----29.75- 83.7 86.5----
2024-06-18 06:30 amENE 17.1 20.0----29.74- 83.7 86.5----
2024-06-18 06:24 amENE 15.9 19.0----29.74- 83.5 86.5----
2024-06-18 06:18 amENE 15.9 20.0----29.75- 83.5 86.5----
2024-06-18 06:12 amENE 17.1 20.0----29.75- 83.5 86.5----
2024-06-18 06:06 amENE 17.1 21.0----29.75- 83.3 86.5----
2024-06-18 06:00 amENE 17.1 20.0----29.74-0.03 83.5 86.5----
2024-06-18 05:54 amENE 15.0 18.1----29.74- 83.5 86.5----
2024-06-18 05:48 amENE 14.0 18.1----29.75- 83.3 86.5----
2024-06-18 05:42 amENE 15.9 18.1----29.75- 83.3 86.5----
2024-06-18 05:36 amENE 15.0 18.1----29.75- 82.9 86.5----
2024-06-18 05:30 amENE 15.9 20.0----29.75- 82.9 86.5----
2024-06-18 05:24 amENE 15.0 19.0----29.75- 83.1 86.5----
2024-06-18 05:18 amENE 15.9 19.0----29.75- 82.9 86.5----
2024-06-18 05:12 am NE 17.1 19.0----29.75- 82.9 86.5----
2024-06-18 05:06 amENE 15.9 19.0----29.75- 82.8 86.5----
2024-06-18 05:00 amENE 17.1 20.0----29.75-0.03 82.9 86.5----
2024-06-18 04:54 amENE 18.1 20.0----29.75- 82.6 86.5----
2024-06-18 04:48 amENE 17.1 21.0----29.75- 82.8 86.5----
2024-06-18 04:42 amENE 19.0 22.0----29.76- 82.8 86.5----
2024-06-18 04:36 amENE 19.0 22.0----29.75- 82.8 86.4----
2024-06-18 04:30 amENE 22.0 25.1----29.75- 82.8 86.4----
2024-06-18 04:24 amENE 20.0 24.1----29.75- 82.8 86.2----
2024-06-18 04:18 amENE 21.0 24.1----29.75- 82.6 86.2----
2024-06-18 04:12 amENE 22.0 25.1----29.75- 82.8 86.2----
2024-06-18 04:06 amENE 21.0 25.1----29.75- 82.9 86.2----
2024-06-18 04:00 amENE 21.0 25.1----29.75-0.04 82.8 86.2----
2024-06-18 03:54 amENE 21.0 24.1----29.76- 83.1 86.2----
2024-06-18 03:48 amENE 20.0 22.9----29.76- 83.1 86.2----
2024-06-18 03:42 amENE 20.0 22.9----29.76- 83.3 86.2----
2024-06-18 03:36 amENE 19.0 22.0----29.76- 83.7 86.2----
2024-06-18 03:30 am E 19.0 22.9----29.76- 84.0 86.2----
2024-06-18 03:24 am E 19.0 25.1----29.76- 84.0 86.2----
2024-06-18 03:18 am E 20.0 22.9----29.77- 83.7 86.2----
2024-06-18 03:12 am E 21.0 24.1----29.77- 83.5 86.2----
2024-06-18 03:06 am E 19.0 22.0----29.77- 83.3 86.2----
2024-06-18 03:00 am E 19.0 24.1----29.77-0.04 83.1 86.2----
2024-06-18 02:54 am E 20.0 25.1----29.77- 83.1 86.2----
2024-06-18 02:48 am E 19.0 24.1----29.77- 82.9 86.2----
2024-06-18 02:42 am E 21.0 24.1----29.77- 83.1 86.2----
2024-06-18 02:36 am E 19.0 24.1----29.77- 82.8 86.2----
2024-06-18 02:30 am E 21.0 25.1----29.78- 82.4 86.2----
2024-06-18 02:24 am E 19.0 22.9----29.78- 82.8 86.2----
2024-06-18 02:18 am E 19.0 22.9----29.78- 82.6 86.2----
2024-06-18 02:12 am E 19.0 22.9----29.78- 82.2 86.2----
2024-06-18 02:06 am E 18.1 22.0----29.78- 82.2 86.2----
2024-06-18 02:00 am E 18.1 21.0----29.78-0.02 82.4 86.2----
2024-06-18 01:54 am E 18.1 22.9----29.79- 82.4 86.2----
2024-06-18 01:48 am E 20.0 24.1----29.79- 82.8 86.2----
2024-06-18 01:42 am E 21.0 25.1----29.79- 82.4 86.2----
2024-06-18 01:36 am E 21.0 25.1----29.79- 82.9 86.2----
2024-06-18 01:30 am E 24.1 29.9----29.79- 82.9 86.2----
2024-06-18 01:24 am E 25.1 28.9----29.79- 83.5 86.4----
2024-06-18 01:18 am E 20.0 31.1----29.80- 83.7 86.4----
2024-06-18 01:12 am E 24.1 29.9----29.79- 83.3 86.4----
2024-06-18 01:06 am E 27.0 29.9----29.79- 83.5 86.4----
2024-06-18 01:00 am E 24.1 28.0----29.80-0.01 83.5 86.5----
2024-06-18 12:54 am E 24.1 27.0----29.80- 83.8 86.5----
2024-06-18 12:48 am E 22.0 27.0----29.81- 84.0 86.5----
2024-06-18 12:42 am E 25.1 28.0----29.80- 83.7 86.7----
2024-06-18 12:36 am E 22.9 31.1----29.81- 83.7 86.9----
2024-06-18 12:30 amENE 22.9 28.9----29.81- 83.8 86.9----
2024-06-18 12:24 am E 22.9 28.0----29.81- 83.8 87.1----
2024-06-18 12:18 am E 24.1 28.0----29.81- 83.7 87.1----
2024-06-18 12:12 am E 22.0 28.0----29.81- 83.7 87.1----
2024-06-18 12:06 am E 25.1 28.0----29.81- 83.8 87.3----
2024-06-18 12:00 am E 24.1 28.9----29.81+0.03 83.8 87.1----
2024-06-17 11:54 pm E 25.1 29.9----29.81- 83.7 87.1----
2024-06-17 11:48 pm E 22.0 28.0----29.81- 83.8 87.1----
2024-06-17 11:42 pm E 22.0 26.0----29.82- 83.7 86.9----
2024-06-17 11:36 pm E 22.9 27.0----29.82- 83.7 87.1----
2024-06-17 11:30 pm E 21.0 28.0----29.82- 83.8 86.9----
2024-06-17 11:24 pm E 22.0 27.0----29.81- 83.5 86.9----
2024-06-17 11:18 pm E 22.0 28.0----29.81- 83.7 87.1----
2024-06-17 11:12 pm E 24.1 28.0----29.81- 83.5 86.9----
2024-06-17 11:06 pm E 22.0 26.0----29.81- 83.3 86.9----
2024-06-17 11:00 pm E 22.0 27.0----29.81+0.02 83.3 86.9----
2024-06-17 10:54 pmENE 22.9 27.0----29.81- 83.1 86.9----
2024-06-17 10:48 pm E 25.1 28.9----29.80- 83.3 86.7----
2024-06-17 10:42 pm E 22.9 26.0----29.80- 83.7 86.7----
2024-06-17 10:36 pm E 25.1 27.0----29.80- 83.3 86.7----
2024-06-17 10:30 pm E 24.1 28.0----29.80- 83.5 86.7----
2024-06-17 10:24 pm E 22.0 27.0----29.80- 83.7 86.7----
2024-06-17 10:18 pm E 24.1 27.0----29.80- 83.5 86.9----
2024-06-17 10:12 pm E 24.1 27.0----29.80- 83.5 86.9----
2024-06-17 10:06 pm E 22.9 27.0----29.80- 83.5 87.3----
2024-06-17 10:00 pm E 22.9 25.1----29.80+0.02 83.5 87.3----
2024-06-17 09:54 pm E 22.0 26.0----29.80- 83.5 87.3----
2024-06-17 09:48 pm E 24.1 27.0----29.80- 83.5 87.3----
2024-06-17 09:42 pm E 24.1 28.9----29.80- 83.3 87.4----
2024-06-17 09:36 pm E 24.1 28.9----29.80- 83.7 87.4----
2024-06-17 09:30 pm E 24.1 28.9----29.80- 83.5 87.6----
2024-06-17 09:24 pm E 22.9 26.0----29.79- 83.5 87.6----
2024-06-17 09:18 pm E 22.0 26.0----29.79- 83.8 87.6----
2024-06-17 09:12 pm E 24.1 28.9----29.79- 83.7 87.6----
2024-06-17 09:06 pm E 25.1 28.0----29.79- 83.7 87.8----
2024-06-17 09:00 pm E 24.1 28.0----29.79+0.01 83.5 87.8----
2024-06-17 08:54 pm E 22.0 25.1----29.79- 83.3 87.8----
2024-06-17 08:48 pm E 22.9 28.0----29.79- 83.3 87.8----
2024-06-17 08:42 pm E 22.0 25.1----29.79- 82.6 87.8----
2024-06-17 08:36 pm E 21.0 25.1----29.79- 82.6 87.8----
2024-06-17 08:30 pm E 22.0 25.1------ 82.8 88.0----
2024-06-17 08:24 pm E 22.9 27.0------ 82.8 88.2----
2024-06-17 08:18 pm E 24.1 28.0----29.79- 82.8 88.2----
2024-06-17 08:12 pm E 24.1 28.0----29.79- 82.8 88.2----
2024-06-17 08:06 pm E 24.1 28.9----29.79- 83.1 88.3----
2024-06-17 08:00 pmENE 24.1 32.1----29.79+0.01 82.8 88.3----
2024-06-17 07:54 pmENE 26.0 29.9----29.79- 82.9 88.5----
2024-06-17 07:48 pm E 25.1 31.1----29.79- 83.1 88.7----
2024-06-17 07:42 pm E 22.9 28.9----29.79- 82.9 88.7----
2024-06-17 07:36 pm E 26.0 32.1----29.79- 82.8 88.7----
2024-06-17 07:30 pm E 28.9 34.0----29.79- 82.9 88.9----
2024-06-17 07:24 pm E 26.0 33.0----29.79- 83.3 89.2----
2024-06-17 07:18 pm E 27.0 29.9----29.79- 83.7 89.2----
2024-06-17 07:12 pm E 25.1 31.1----29.78- 84.4 88.5----
2024-06-17 07:06 pm E 26.0 31.1----29.78- 84.2 88.3----
2024-06-17 07:00 pm E 26.0 28.9----29.78+0.00 83.8 88.2----
2024-06-17 06:54 pm E 24.1 29.9----29.78- 84.0 88.2----
2024-06-17 06:48 pm E 26.0 28.9----29.78- 83.5 88.2----
2024-06-17 06:42 pm E 22.9 27.0----29.78- 84.4 88.3----
2024-06-17 06:36 pm E 22.9 27.0----29.78- 84.4 88.3----
2024-06-17 06:30 pm E 21.0 24.1----29.78- 84.0 88.3----
2024-06-17 06:24 pm E 24.1 29.9----29.78- 82.8 88.3----
2024-06-17 06:18 pm E 26.0 31.1----29.78- 84.4 88.3----
2024-06-17 06:12 pm E 20.0 25.1----29.78- 86.5 88.3----
2024-06-17 06:06 pm E 21.0 25.1----29.78- 86.0 88.3----
2024-06-17 06:00 pm E 21.0 25.1----29.78-0.01 85.6 88.3----
2024-06-17 05:54 pm E 22.9 27.0----29.78- 85.8 88.3----
2024-06-17 05:48 pm E 22.0 25.1----29.78- 86.4 88.3----
2024-06-17 05:42 pm E 19.0 22.9----29.78- 86.2 88.3----
2024-06-17 05:36 pm E 18.1 22.9----29.78- 86.4 88.3----
2024-06-17 05:30 pm E 21.0 24.1----29.78- 86.0 88.3----
2024-06-17 05:24 pm E 21.0 24.1----29.78- 86.0 88.3----
2024-06-17 05:18 pm E 21.0 25.1----29.78- 86.0 88.5----
2024-06-17 05:12 pm E 21.0 25.1----29.78- 86.0 88.5----
2024-06-17 05:06 pm E 21.0 25.1----29.78- 86.0 88.5----
2024-06-17 05:00 pm-------29.78-0.02- 88.5----
2024-06-17 04:54 pm-------29.78-- 88.5----
2024-06-17 04:48 pm E 21.0 25.1----29.77-- 88.5----
2024-06-17 04:42 pm E 20.0 25.1----29.78-- 88.5----
2024-06-17 04:36 pm E 19.0 24.1----29.78-- 88.5----
2024-06-17 04:30 pm E 18.1 21.0----29.78- 85.8 88.5----
2024-06-17 04:24 pm E 19.0 22.0----29.78- 85.6 88.7----
2024-06-17 04:18 pm E 19.0 22.0------ 85.5 88.7----
2024-06-17 04:12 pm E 20.0 22.9------ 85.5 88.7----
2024-06-17 04:06 pm E 20.0 22.9------ 85.5 88.7----
2024-06-17 04:00 pm E 18.1 22.9----29.78-0.02 86.0 88.7----
2024-06-17 03:54 pm E 18.1 22.0----29.78- 85.5 88.7----
2024-06-17 03:48 pm E 18.1 22.0----29.78- 85.6 88.5----
2024-06-17 03:42 pm E 19.0 22.0----29.78- 85.6 88.5----
2024-06-17 03:36 pm E 18.1 22.0----29.78- 85.5 88.5----
2024-06-17 03:30 pm E 17.1 22.9----29.78- 85.5 88.5----
2024-06-17 03:24 pm E 17.1 21.0----29.78- 85.6 88.5----
2024-06-17 03:18 pmENE 19.0 22.0----29.78- 85.6 88.5----
2024-06-17 03:12 pm E 20.0 22.9----29.78- 86.2 88.5----
2024-06-17 03:06 pm E 18.1 24.1----29.78- 85.8 88.5----
2024-06-17 03:00 pm E 18.1 22.0----29.78-0.03 85.6 88.5----
2024-06-17 02:54 pm E 20.0 22.9----29.79- 85.8 88.5----
2024-06-17 02:48 pm E 19.0 22.0----29.79- 85.6 88.5----
2024-06-17 02:42 pmENE 18.1 21.0----29.79- 85.5 88.3----
2024-06-17 02:36 pm E 19.0 22.0----29.79- 84.9 88.3----
2024-06-17 02:30 pm E 19.0 22.0----29.79- 85.6 88.3----
2024-06-17 02:24 pm E 17.1 20.0----29.79- 85.6 88.3----
2024-06-17 02:18 pm E 18.1 20.0----29.79- 85.6 88.3----
2024-06-17 02:12 pm E 18.1 21.0----29.79- 85.5 88.3----
2024-06-17 02:06 pm E 19.0 22.0----29.80- 85.5 88.3----
2024-06-17 02:00 pm E 19.0 22.0----29.80-0.01 85.5 88.3----
2024-06-17 01:54 pm E 18.1 20.0----29.80- 85.5 88.3----
2024-06-17 01:48 pm E 15.9 19.0----29.80- 85.5 88.3----
2024-06-17 01:42 pm E 17.1 20.0----29.80- 85.6 88.3----
2024-06-17 01:36 pm E 17.1 20.0----29.80- 85.1 88.2----
2024-06-17 01:30 pm E 18.1 20.0----29.80- 85.1 88.2----
2024-06-17 01:24 pmENE 15.9 19.0----29.80- 85.8 88.2----
2024-06-17 01:18 pm E 15.9 18.1----29.80- 85.8 88.2----
2024-06-17 01:12 pm E 15.0 18.1----29.80- 85.8 88.2----
2024-06-17 01:06 pm E 15.9 18.1----29.80- 85.6 88.2----
2024-06-17 01:00 pm E 15.0 17.1----29.80+0.00 85.5 88.0----
2024-06-17 12:54 pm E 15.0 19.0----29.81- 85.5 88.0----
2024-06-17 12:48 pm E 15.9 20.0----29.81- 85.3 88.0----
2024-06-17 12:42 pm E 18.1 21.0----29.81- 85.5 88.0----
2024-06-17 12:36 pm E 17.1 19.0----29.81- 85.3 88.0----
2024-06-17 12:30 pm E 15.9 20.0----29.81- 85.5 88.0----
2024-06-17 12:24 pm E 15.9 19.0----29.81- 85.5 88.0----
2024-06-17 12:18 pm E 15.0 18.1----29.81- 85.5 88.0----
2024-06-17 12:12 pm E 15.0 18.1----29.81- 85.5 88.0----
2024-06-17 12:06 pm E 15.0 17.1----29.81- 85.6 87.8----
2024-06-17 12:00 pm E 15.0 17.1----29.81+0.01 85.5 87.8----
2024-06-17 11:54 am E 14.0 17.1----29.81- 85.8 87.8----
2024-06-17 11:48 am E 15.0 17.1----29.81- 85.8 87.8----
2024-06-17 11:42 am E 12.0 15.0----29.81- 85.5 87.8----
2024-06-17 11:36 am E 14.0 18.1----29.81- 85.6 87.8----
2024-06-17 11:30 am E 12.0 15.9----29.81- 85.6 87.6----
2024-06-17 11:24 am E 13.0 14.0----29.81- 85.5 87.6----
2024-06-17 11:18 am E 14.0 15.0----29.81- 85.6 87.6----
2024-06-17 11:12 am E 14.0 15.9----29.81- 85.5 87.6----
2024-06-17 11:06 am E 13.0 15.0----29.80- 84.9 87.4----
2024-06-17 11:00 am E 12.0 15.0----29.81+0.02 84.9 87.4----
2024-06-17 10:54 am E 14.0 15.9----29.81- 84.9 87.4----
2024-06-17 10:48 am E 14.0 18.1----29.81- 85.1 87.4----
2024-06-17 10:42 am E 15.9 18.1----29.81- 84.9 87.4----
2024-06-17 10:36 am E 15.9 18.1----29.81- 85.3 87.4----
2024-06-17 10:30 amESE 14.0 17.1----29.81-- 87.4----
2024-06-17 10:24 am E 15.0 18.1----29.81-- 87.4----
2024-06-17 10:18 am E 17.1 19.0----29.80- 85.1 87.4----
2024-06-17 10:12 am E 14.0 15.9----29.81- 85.1 87.4----
2024-06-17 10:06 am E 13.0 15.0----29.80- 85.1 87.3----
2024-06-17 10:00 am E 13.0 15.9----29.80+0.04 85.3 87.3----
2024-06-17 09:54 amESE 15.0 15.9----29.80- 84.7 87.3----
2024-06-17 09:48 amESE 14.0 15.9----29.80- 84.9 87.3----
2024-06-17 09:42 amESE 13.0 17.1----29.80- 84.7 87.3----
2024-06-17 09:36 amESE 14.0 17.1----29.80- 84.9 87.3----
2024-06-17 09:30 amESE 14.0 15.9----29.80- 84.7 87.3----
2024-06-17 09:24 am E 15.0 18.1----29.80- 84.9 87.3----
2024-06-17 09:18 amESE 15.9 18.1----29.80- 84.9 87.3----
2024-06-17 09:12 amESE 15.0 18.1----29.80- 84.7 87.3----
2024-06-17 09:06 amESE 15.0 18.1----29.80- 84.7 87.3----
2024-06-17 09:00 amESE 15.0 19.0----29.80+0.02 84.7 87.3----
2024-06-17 08:54 am E 15.9 18.1----29.79- 84.7 87.3----